CAPE
5 4 6 8 2 0 1 0 0 0 0 0 0 0 0 0 0 0 0 0 0 0 0 0 0 3 19 3 3 1 0 0 0 11 15 3 9 102 45 50 36 33 58 116 125 174 169 318 290 359 621 683 741 935
6 3 4 2 6 3 0 8 0 0 0 0 0 0 0 17 0 0 0 0 0 0 0 0 0 0 0 0 31 3 22 0 3 46 37 60 48 152 12 62 247 38 0 195 41 355 609 498 558 455 594 892 909 648
8 14 20 0 11 13 11 15 2 7 1 0 0 0 0 0 15 0 0 0 0 0 0 0 0 0 0 0 0 38 2 29 7 177 123 115 126 100 130 80 76 236 149 69 239 184 362 576 558 582 824 379 123 100
0 39 39 27 23 3 3 6 1 11 5 1 0 0 0 0 11 14 0 0 0 0 0 0 0 0 0 0 4 11 6 4 61 148 139 114 129 198 68 192 209 295 376 288 373 424 580 727 703 854 698 459 350 191
2 0 5 17 21 1 6 6 2 9 16 8 0 0 0 0 2 0 0 0 0 0 0 0 0 0 0 0 2 46 46 61 86 119 116 142 127 143 118 118 1 311 267 446 234 471 463 321 825 843 688 640 635 403
1 4 5 0 0 0 7 11 9 10 5 13 3 0 0 0 0 0 0 0 0 0 0 0 2 47 1 0 16 73 132 102 90 167 151 103 134 166 27 74 56 76 224 382 466 773 645 770 479 762 808 751 651 507
0 0 0 0 4 0 1 3 4 5 8 0 0 0 1 0 0 0 0 0 0 0 14 0 52 106 0 0 0 78 94 83 125 118 54 75 137 9 0 6 0 46 173 419 543 644 788 666 611 740 800 889 603 579
0 0 1 0 8 0 0 3 9 12 6 0 0 2 0 0 0 0 0 0 0 0 1 18 127 143 0 27 51 65 102 112 126 91 106 79 77 19 272 8 4 31 217 465 483 487 310 579 655 794 860 1014 842 744
0 0 0 11 26 7 0 0 0 2 0 0 1 12 2 0 0 0 0 0 0 14 15 42 155 106 25 52 90 129 143 106 127 91 108 108 140 518 63 0 10 194 266 164 320 522 421 470 667 784 937 1032 816 763
0 0 0 1 21 20 0 2 2 0 0 1 10 8 11 0 0 0 0 26 21 5 0 0 101 211 92 82 96 126 102 161 157 148 173 17 23 53 0 0 146 97 200 127 292 648 559 528 439 556 877 802 728 524
0 0 0 0 12 14 4 1 0 0 0 6 8 5 14 11 0 13 58 20 7 25 5 0 56 219 132 152 174 228 172 174 127 132 63 14 72 19 30 118 204 211 230 204 206 197 255 155 361 474 480 391 398 338
0 0 0 0 18 9 3 0 0 0 8 6 13 16 21 9 38 82 68 64 63 21 3 3 40 90 245 294 230 198 176 182 53 132 44 30 63 61 121 148 241 481 373 223 309 313 191 30 262 341 327 387 315 415
0 0 0 0 11 3 0 0 1 7 24 26 4 19 125 16 11 6 23 50 49 16 0 0 7 86 504 604 356 338 160 105 118 47 14 67 17 53 246 166 124 218 262 170 233 245 124 74 326 210 8 0 81 184
0 0 0 0 6 4 0 0 4 31 26 55 47 9 138 77 57 60 54 52 68 21 180 34 15 77 177 317 271 141 171 151 63 29 73 73 59 285 298 195 181 173 178 177 213 135 45 183 118 73 3 0 14 35
0 0 0 0 5 9 0 0 8 20 42 14 78 229 63 59 82 65 83 83 61 108 334 15 67 84 147 163 205 173 132 88 59 97 75 41 353 352 343 243 225 209 192 205 174 33 4 97 59 12 0 0 0 0
0 0 0 1 6 17 4 3 7 11 35 18 30 41 93 164 155 123 81 121 133 198 276 124 80 20 72 95 103 72 79 61 45 183 63 137 518 390 446 381 295 161 228 142 56 0 0 23 0 0 0 0 0 0
0 0 0 5 10 14 17 2 9 62 55 71 11 73 58 138 140 99 89 191 158 214 155 161 98 11 43 34 27 34 62 87 176 142 158 594 570 563 486 494 405 270 261 109 41 16 8 2 0 0 0 0 0 0
0 8 9 15 13 13 14 9 14 33 32 30 65 127 127 76 69 51 13 41 36 86 200 83 165 70 18 3 10 75 120 133 243 352 291 528 760 719 486 510 549 378 327 195 129 65 45 4 0 0 0 0 0 0
0 1 19 19 19 6 3 0 19 31 24 36 33 48 56 35 12 1 0 5 5 169 294 255 78 27 68 143 195 298 258 277 304 392 457 760 920 774 683 496 532 603 401 311 205 51 5 58 0 0 0 0 0 0
4 11 11 8 8 0 3 52 0 52 33 33 31 35 38 23 11 3 1 0 3 123 113 59 46 106 150 200 282 297 380 430 462 334 324 502 596 402 460 385 356 434 401 228 148 2 24 44 15 0 0 0 0 15
4 11 2 0 0 0 1 0 0 0 52 24 27 48 49 13 27 54 42 19 31 30 32 69 132 137 135 211 359 379 357 380 442 425 427 399 419 325 196 274 293 242 224 144 39 25 2 7 49 95 96 46 33 72
3 5 1 0 4 21 56 58 54 57 56 0 39 25 0 4 43 51 253 64 33 20 24 67 105 64 100 157 200 346 381 557 498 264 191 329 549 548 523 548 532 538 594 720 795 769 899 729 449 457 350 260 94 76
0 1 0 0 0 52 17 60 0 0 0 0 28 26 63 104 100 138 44 36 56 97 116 146 98 115 61 34 163 330 420 439 597 460 370 396 398 468 489 565 632 703 657 537 500 461 207 18 20 60 30 20 35 74
0 6 0 0 0 0 0 0 0 0 0 61 14 42 67 182 194 112 84 163 466 364 48 18 4 10 48 193 397 490 384 650 837 603 581 475 442 479 406 333 279 230 193 98 62 43 23 16 2 20 17 10 13 17
0 0 3 8 0 0 0 0 0 5 0 0 0 13 145 182 217 164 137 237 206 127 80 114 177 134 194 201 502 782 567 453 722 529 700 588 590 77 22 12 1 21 13 7 2 0 5 6 4 12 14 18 21 24
0 0 0 0 0 0 0 0 0 20 0 20 59 81 243 252 62 55 175 198 172 63 41 169 146 118 158 329 761 745 406 271 640 303 97 76 115 19 8 11 6 0 0 0 0 0 0 0 1 3 16 11 0 6
0 0 0 0 5 0 0 0 0 1 42 61 90 171 215 62 67 339 253 111 204 116 23 29 76 170 380 367 175 283 198 437 903 595 189 114 65 34 12 0 0 0 0 0 0 0 0 0 0 3 8 13 13 7
0 0 0 0 0 0 0 0 0 116 107 160 198 100 65 82 204 306 137 90 97 138 27 32 143 189 159 568 505 424 350 225 94 52 23 2 0 0 0 0 0 0 0 0 0 3 4 6 3 0 12 9 18 17
0 0 0 0 0 0 4 1 36 104 175 138 227 142 203 161 151 346 294 182 176 136 161 138 222 268 245 208 154 111 87 40 0 0 0 0 0 0 0 0 1 8 15 5 0 0 155 20 22 35 31 31 28 34
0 0 0 1 0 1 0 0 11 54 91 65 220 262 210 116 140 211 357 433 249 50 28 7 1 1 2 3 0 0 0 0 2 0 0 0 0 0 0 2 9 11 16 29 43 71 21 59 90 140 69 63 58 53
0 0 0 0 1 4 92 153 220 95 282 11 57 241 327 338 348 211 58 35 8 1 0 4 8 9 10 19 20 14 0 0 0 0 0 0 4 9 11 13 19 37 54 53 50 48 56 59 62 70 76 88 118 93
1 0 0 0 20 8 49 44 62 100 210 216 197 172 122 150 87 393 377 101 43 40 10 20 41 49 37 4 0 0 0 0 0 0 0 0 0 1 15 74 49 49 125 163 103 58 60 54 52 66 72 88 128 125
3 15 7 0 0 3 13 50 85 83 72 69 81 75 70 75 86 120 48 167 121 79 74 79 77 54 6 0 0 0 0 0 0 0 0 0 0 0 0 9 25 47 51 27 28 28 20 17 29 41 49 59 69 76
CIN
-6 -2 0 0 0 0 -1 0 0 0 0 0 0 0 0 0 0 0 0 0 0 0 0 0 0 -20 -61 -9 -9 -6 0 0 0 -7 -2 -13 -11 -5 -5 -1 -1 0 0 0 0 0 0 -34 -32 -2 -17 -23 -6 -1
0 -1 0 -3 -1 0 0 0 0 0 0 0 0 0 0 -1 0 0 0 0 0 0 0 0 0 0 0 0 -133 -9 -47 0 0 0 -8 -3 -4 -3 -10 0 -10 0 0 0 -2 -1 -27 -23 -16 -23 -12 0 0 -6
-3 -5 -2 0 -2 -47 -2 0 -2 0 0 0 0 0 0 0 -4 0 0 0 0 0 0 0 0 0 0 0 -4 -3 -131 -76 -29 -68 -2 0 -1 0 0 0 -1 -2 -21 -1 -2 -5 -9 -14 -17 -14 -4 -7 -35 -47
0 -1 -2 -5 -22 -24 0 0 -1 0 0 0 0 0 0 0 -6 0 0 0 0 0 0 0 0 0 0 0 -20 -18 -125 -60 -65 -53 -2 0 0 -19 0 -2 0 -14 -22 0 0 -11 -15 -10 -6 -4 -7 -12 -15 -34
-2 0 -40 -20 -26 -6 0 0 0 -1 0 0 0 0 0 0 -2 0 0 0 0 0 0 0 0 0 0 0 -16 -3 -4 -61 -52 -14 -1 0 -7 -10 -5 -2 0 -6 0 0 0 -2 -3 -1 -6 -4 -5 -6 -8 -12
-1 -2 -2 0 0 0 0 0 0 0 0 0 -2 0 0 0 0 0 0 0 0 0 0 0 0 -27 -63 0 -134 -123 -98 -83 -51 -2 -1 -29 -89 -15 0 0 -6 -4 -6 -4 0 -3 -1 -3 -2 -5 0 -1 -5 -3
0 0 0 0 0 0 -2 0 0 -1 0 0 0 0 0 0 0 0 0 0 0 0 0 0 0 -14 0 0 0 -89 -88 -50 -25 -10 -15 -9 -22 -8 0 -49 0 -34 -16 -17 -21 -25 -13 -11 0 -3 -1 0 -13 0
0 0 0 0 -1 0 0 -1 -2 -14 0 0 0 -1 0 0 0 0 0 0 0 0 0 0 0 -2 0 -19 -33 -69 -30 -36 -31 -3 -38 -11 -44 -10 -30 -100 -35 -53 -27 -16 -21 -19 -3 -3 -4 -4 -1 0 -2 0
0 0 0 -2 -1 0 0 0 0 -1 0 0 0 0 0 0 0 0 0 0 0 0 0 -7 0 0 -51 -18 -15 -28 -9 -2 -31 -6 -4 -11 -4 -11 -90 0 -60 -37 -40 -40 -25 -13 -25 -9 -2 -4 -1 0 0 0
0 0 0 0 0 0 0 -2 -3 0 0 -1 0 0 0 0 0 0 0 0 0 0 0 0 -2 -1 -26 -10 -3 0 -4 -1 0 0 -14 -2 -37 -56 0 0 -32 -55 -46 -70 -41 -11 -19 -9 -14 0 0 0 0 0
0 0 0 0 0 0 0 0 0 0 0 0 0 0 0 0 0 -5 0 0 0 0 0 0 -4 0 -28 -1 0 -4 0 -1 0 0 -1 -15 -26 -23 -72 -90 -71 -64 -54 -57 -54 -71 -67 -99 -29 -3 -1 -3 -7 -20
0 0 0 0 0 0 0 0 0 0 0 0 0 -2 0 0 -1 0 0 0 0 0 0 -2 -3 -6 -4 -37 -1 -9 0 0 0 -12 0 -37 -9 -37 -46 -80 -89 -73 -82 -89 -48 -38 -83 -182 -64 -31 -24 -11 -25 -10
0 0 0 0 -1 0 0 0 0 -21 -17 -2 -6 -11 0 -2 0 0 0 0 0 0 0 0 -11 -6 -10 -18 -3 -1 0 0 -7 0 0 -27 -12 -17 -24 -90 -126 -141 -129 -141 -103 -89 -129 -163 -62 -76 -87 0 -114 -47
0 0 0 0 0 0 0 0 -11 -1 -5 -1 -10 -4 0 0 0 0 0 0 -1 0 0 0 -13 -5 0 -6 0 -1 -1 -4 0 0 -3 0 -5 -12 -33 -79 -107 -150 -169 -162 -131 -150 -196 -133 -142 -164 -98 0 -194 -129
0 0 0 0 0 -8 0 0 -5 -2 0 -6 -3 0 0 0 0 -1 -2 0 -2 -5 0 -19 -3 0 -2 -3 -4 -5 -13 -1 0 -3 0 -1 -20 -35 -47 -75 -90 -107 -135 -143 -145 -208 -236 -156 -169 -223 0 0 0 0
0 0 0 -2 0 0 -2 -4 -5 -2 0 0 -1 0 0 0 0 0 0 0 0 0 -8 -4 0 0 0 0 0 0 -1 0 -2 0 -2 -17 -29 -44 -43 -36 -64 -108 -107 -124 -163 0 0 -172 0 0 0 0 0 0
0 0 0 -4 0 0 0 0 0 0 0 0 -2 -5 -4 0 0 0 -3 0 -1 -2 0 -4 0 0 -2 0 0 -1 0 -1 -13 -1 -10 -44 -61 -75 -61 -45 -46 -62 -70 -89 -129 -149 -154 -175 0 0 0 0 0 0
0 0 0 0 0 0 0 0 0 0 0 -9 -6 0 0 0 -6 -15 -11 -25 -11 -1 -2 0 -3 -4 0 0 0 0 -1 -1 -6 -22 -25 -42 -72 -91 -95 -71 -69 -64 -62 -65 -74 -93 -103 -138 0 0 0 0 0 0
0 0 0 0 0 0 0 0 0 0 -2 0 0 0 0 0 -5 0 0 -2 -11 0 0 -1 0 -1 0 0 0 0 -1 -2 -2 -20 -21 -32 -72 -97 -114 -123 -117 -95 -86 -82 -86 -67 -43 -78 0 0 0 0 0 0
0 0 -2 0 0 0 -1 0 0 0 0 0 0 0 0 0 0 0 0 0 0 0 0 0 -1 0 0 0 -1 -3 -13 -15 -7 -2 0 -20 -48 -127 -123 -95 -76 -112 -89 -97 -80 -7 -64 -63 -61 0 0 0 -1 -16
0 0 0 0 0 0 0 0 0 0 0 0 0 0 -1 0 0 0 0 0 0 0 -2 0 0 0 0 0 0 -7 -16 -24 -11 -22 -19 -21 -95 -91 -119 -105 -97 -66 -42 -35 -39 -32 -4 -34 -26 -20 -36 -35 -11 -23
0 0 -1 0 -1 0 0 0 0 0 0 0 0 0 0 0 0 0 -1 0 0 0 -4 0 0 0 -2 0 0 0 -2 -8 -22 -95 -80 -59 -21 -31 -42 -42 -31 -22 -19 -19 -24 -13 -10 -40 -55 -48 -49 -42 -20 -32
0 0 0 0 0 0 0 0 0 0 0 0 0 0 -1 0 0 0 0 0 0 0 0 -1 -8 -8 -5 -6 0 0 0 0 -1 -14 -44 -29 -53 -51 -45 -44 -37 -36 -51 -77 -70 -68 -108 -56 -82 -66 -74 -58 -37 -10
0 0 0 0 0 0 0 0 0 0 0 0 0 0 0 0 0 0 0 0 -1 -6 -32 -24 -1 -2 -1 0 0 0 0 -3 -4 -19 -27 -24 -15 -22 -32 -47 -67 -84 -81 -93 -96 -110 -118 -104 -23 -74 -82 -88 -69 -12
0 0 0 0 0 0 0 0 0 0 0 0 0 0 0 0 0 0 0 -2 -17 -7 -1 0 -30 0 0 -1 0 -1 -7 -8 -20 -22 -24 -20 -3 -49 -65 -5 -85 -120 -132 -139 -195 0 -139 -107 0 0 0 0 0 0
0 0 0 0 0 0 0 0 0 0 0 0 0 0 -1 0 -1 0 -5 -18 -13 -14 -16 -12 0 0 -3 0 -1 -9 -33 -51 -27 -58 -87 -83 -34 -29 -18 -10 -12 0 0 0 0 0 0 0 0 0 0 -1 0 -1
0 0 0 0 -1 0 0 0 0 0 0 0 -2 0 0 0 0 -2 -17 -12 -2 -7 -34 -48 -29 -1 0 0 -35 -34 -47 -16 -5 -10 -21 -15 -1 -3 -6 0 0 0 0 0 0 0 0 0 0 0 0 0 0 0
0 0 0 0 0 0 0 -1 0 0 0 -1 -1 -1 -1 0 -2 -1 -26 -39 -30 -12 -65 -52 -72 -12 -9 -9 -5 -12 -10 -6 -19 -14 -13 -2 0 0 0 0 0 0 0 0 0 0 0 0 0 0 0 0 0 0
0 0 0 0 0 -1 0 0 0 0 0 0 0 0 -3 -3 -7 -2 -16 -38 -52 -31 -28 -11 -19 -14 -14 -14 -12 -6 -3 0 0 0 0 0 0 0 0 0 0 0 0 0 0 -1 -4 -2 -2 0 -1 0 0 0
0 0 0 -3 0 0 -6 0 -1 -17 0 -11 -10 -8 -8 -6 -11 -20 -5 -7 -17 -23 -12 -13 -12 -10 -7 -9 0 0 0 0 0 0 0 0 0 0 0 0 0 0 0 0 0 -15 -69 -53 -30 -14 -13 0 0 0
0 0 0 0 -2 -4 -3 -3 0 -5 0 -15 -17 -4 -5 -3 -7 -1 -29 -106 -23 -1 0 0 0 0 0 0 0 0 0 0 0 0 0 0 0 0 0 0 0 0 0 0 0 0 0 -2 0 0 0 0 0 -2
-2 0 0 0 -2 -1 -8 -1 -3 0 0 -10 -2 -20 -19 -9 0 -2 0 0 0 0 -6 -1 0 0 -1 -1 0 0 0 0 0 0 0 0 0 -3 -7 -3 0 0 0 -1 0 0 0 0 0 0 0 0 0 0
-18 -11 -3 0 0 0 0 0 0 -2 -9 -14 0 0 -3 0 0 -5 -24 -25 -1 0 0 0 -1 -3 -6 0 0 0 0 0 0 0 0 0 0 0 0 -3 -4 -2 -5 -1 0 0 0 -3 -1 -1 -3 -2 0 0
Wind_Speed
nan nan nan nan nan nan nan nan nan nan nan nan nan nan nan nan nan nan nan nan nan nan nan nan nan nan nan nan nan nan nan nan nan nan nan nan nan 13 nan nan nan nan nan 14 15 14 11 23 23 17 31 26 26 26
nan nan nan nan nan nan nan nan nan nan nan nan nan nan nan nan nan nan nan nan nan nan nan nan nan nan nan nan nan nan nan nan nan nan nan nan nan 14 nan nan 20 nan nan 25 nan 27 26 21 21 20 18 23 23 23
nan nan nan nan nan nan nan nan nan nan nan nan nan nan nan nan nan nan nan nan nan nan nan nan nan nan nan nan nan nan nan nan nan 26 21 18 15 11 12 nan nan 20 20 nan 19 24 22 18 16 13 13 18 21 24
nan nan nan nan nan nan nan nan nan nan nan nan nan nan nan nan nan nan nan nan nan nan nan nan nan nan nan nan nan nan nan nan nan 17 13 17 12 14 nan 19 10 21 18 13 14 20 19 15 14 18 19 20 20 20
nan nan nan nan nan nan nan nan nan nan nan nan nan nan nan nan nan nan nan nan nan nan nan nan nan nan nan nan nan nan nan nan nan 17 15 16 21 17 14 12 nan 12 9 11 11 22 12 16 16 16 18 19 19 21
nan nan nan nan nan nan nan nan nan nan nan nan nan nan nan nan nan nan nan nan nan nan nan nan nan nan nan nan nan nan 16 18 nan 12 21 20 21 12 nan nan nan nan 8 8 11 15 12 13 16 15 14 14 13 14
nan nan nan nan nan nan nan nan nan nan nan nan nan nan nan nan nan nan nan nan nan nan nan nan nan 21 nan nan nan nan nan nan 16 18 nan nan 16 nan nan nan nan nan 3 8 11 14 11 8 11 13 11 12 12 11
nan nan nan nan nan nan nan nan nan nan nan nan nan nan nan nan nan nan nan nan nan nan nan nan 13 16 nan nan nan nan 17 14 16 nan 18 nan nan nan 7 nan nan nan 4 6 6 3 5 6 1 11 10 12 11 10
nan nan nan nan nan nan nan nan nan nan nan nan nan nan nan nan nan nan nan nan nan nan nan nan 13 19 nan nan nan 20 18 16 24 nan 17 15 15 8 nan nan nan 2 2 5 3 1 2 4 5 9 10 12 11 8
nan nan nan nan nan nan nan nan nan nan nan nan nan nan nan nan nan nan nan nan nan nan nan nan 18 15 nan nan nan 19 19 22 16 19 21 nan nan nan nan nan 11 nan 3 4 4 3 1 0 4 7 9 7 7 7
nan nan nan nan nan nan nan nan nan nan nan nan nan nan nan nan nan nan nan nan nan nan nan nan nan 19 23 17 17 23 19 19 15 16 nan nan nan nan nan 9 8 7 3 2 0 2 2 2 4 6 7 6 6 5
nan nan nan nan nan nan nan nan nan nan nan nan nan nan nan nan nan nan nan nan nan nan nan nan nan nan 24 21 18 24 21 19 nan 19 nan nan nan nan 15 15 9 3 1 2 1 1 5 nan 8 9 8 7 6 7
nan nan nan nan nan nan nan nan nan nan nan nan nan nan 22 nan nan nan nan nan nan nan nan nan nan nan 24 22 24 22 19 15 20 nan nan nan nan nan 19 17 12 11 6 3 5 5 7 nan 10 9 nan nan nan 8
nan nan nan nan nan nan nan nan nan nan nan nan nan nan 20 nan nan nan nan nan nan nan 23 nan nan nan 23 20 25 17 20 15 nan nan nan nan nan 17 17 16 14 13 10 7 10 12 nan 10 10 nan nan nan nan nan
nan nan nan nan nan nan nan nan nan nan nan nan nan 21 nan nan nan nan nan nan nan 19 20 nan nan nan 22 26 23 24 17 nan nan nan nan nan 28 23 19 16 14 17 14 13 14 nan nan nan nan nan nan nan nan nan
nan nan nan nan nan nan nan nan nan nan nan nan nan nan nan 19 18 18 nan 11 16 13 16 17 nan nan nan nan 16 nan nan nan nan 12 nan 30 29 28 23 19 18 19 18 18 nan nan nan nan nan nan nan nan nan nan
nan nan nan nan nan nan nan nan nan nan nan nan nan nan nan 25 24 nan nan 16 16 13 13 13 nan nan nan nan nan nan nan nan 17 17 29 32 32 33 27 22 19 18 20 21 nan nan nan nan nan nan nan nan nan nan
nan nan nan nan nan nan nan nan nan nan nan nan nan 22 21 nan nan nan nan nan nan nan 15 nan 16 nan nan nan nan nan 23 35 25 24 28 31 29 31 28 24 21 18 20 22 22 nan nan nan nan nan nan nan nan nan
nan nan nan nan nan nan nan nan nan nan nan nan nan nan nan nan nan nan nan nan nan 16 17 14 nan nan nan 18 26 29 31 30 35 32 28 26 28 28 26 24 21 19 20 22 22 nan nan nan nan nan nan nan nan nan
nan nan nan nan nan nan nan nan nan nan nan nan nan nan nan nan nan nan nan nan nan 14 11 nan nan 12 20 24 26 31 34 35 32 29 32 32 31 27 25 26 25 25 24 25 24 nan nan nan nan nan nan nan nan nan
nan nan nan nan nan nan nan nan nan nan nan nan nan nan nan nan nan nan nan nan nan nan nan nan 13 14 18 21 26 24 27 30 36 27 26 31 30 29 28 28 26 25 24 22 nan nan nan nan nan nan nan nan nan nan
nan nan nan nan nan nan nan nan nan nan nan nan nan nan nan nan nan nan 10 nan nan nan nan nan 11 nan 16 14 21 20 19 23 28 21 19 27 30 31 31 29 24 26 27 28 28 28 31 30 29 29 30 32 nan nan
nan nan nan nan nan nan nan nan nan nan nan nan nan nan nan 9 10 8 nan nan nan nan 10 11 nan 14 nan nan 19 20 17 13 24 22 31 33 30 26 27 29 31 32 32 31 30 32 33 nan nan nan nan nan nan nan
nan nan nan nan nan nan nan nan nan nan nan nan nan nan nan 9 6 10 nan 2 6 9 nan nan nan nan nan 9 12 18 17 26 28 25 28 27 27 27 24 28 31 31 30 nan nan nan nan nan nan nan nan nan nan nan
nan nan nan nan nan nan nan nan nan nan nan nan nan nan 13 12 10 6 1 5 5 4 nan 2 2 2 6 6 11 16 17 19 21 33 23 16 21 nan nan nan nan nan nan nan nan nan nan nan nan nan nan nan nan nan
nan nan nan nan nan nan nan nan nan nan nan nan nan nan 14 13 nan nan 6 5 9 nan nan 11 11 11 8 5 4 11 15 19 25 23 nan nan 11 nan nan nan nan nan nan nan nan nan nan nan nan nan nan nan nan nan
nan nan nan nan nan nan nan nan nan nan nan nan nan 13 12 nan nan 9 8 8 8 11 nan nan nan 14 10 8 7 13 18 14 14 16 14 9 nan nan nan nan nan nan nan nan nan nan nan nan nan nan nan nan nan nan
nan nan nan nan nan nan nan nan nan 13 10 10 11 12 nan nan 12 9 14 nan nan 8 nan nan 13 12 8 6 5 7 6 10 nan nan nan nan nan nan nan nan nan nan nan nan nan nan nan nan nan nan nan nan nan nan
nan nan nan nan nan nan nan nan nan 14 17 15 17 16 14 11 9 8 13 15 12 12 10 8 5 4 4 4 5 6 nan nan nan nan nan nan nan nan nan nan nan nan nan nan nan nan 23 nan nan nan nan nan nan nan
nan nan nan nan nan nan nan nan nan nan nan nan 15 12 10 9 11 10 8 7 7 nan nan nan nan nan nan nan nan nan nan nan nan nan nan nan nan nan nan nan nan nan nan nan nan nan nan nan nan 20 nan nan nan nan
nan nan nan nan nan nan nan 14 14 nan 16 nan nan 15 10 8 8 8 nan nan nan nan nan nan nan nan nan nan nan nan nan nan nan nan nan nan nan nan nan nan nan nan nan nan nan nan nan nan nan nan nan nan 17 nan
nan nan nan nan nan nan nan nan nan 13 11 11 8 9 10 8 nan 9 8 5 nan nan nan nan nan nan nan nan nan nan nan nan nan nan nan nan nan nan nan nan nan nan 24 25 25 nan nan nan nan nan nan nan 26 27
nan nan nan nan nan nan nan nan nan nan nan nan nan nan nan nan nan 12 nan 13 10 nan nan nan nan nan nan nan nan nan nan nan nan nan nan nan nan nan nan nan nan nan nan nan nan nan nan nan nan nan nan nan nan nan
Wind_Direction
nan nan nan nan nan nan nan nan nan nan nan nan nan nan nan nan nan nan nan nan nan nan nan nan nan nan nan nan nan nan nan nan nan nan nan nan nan 276 nan nan nan nan nan 269 249 247 245 273 268 247 249 260 255 253
nan nan nan nan nan nan nan nan nan nan nan nan nan nan nan nan nan nan nan nan nan nan nan nan nan nan nan nan nan nan nan nan nan nan nan nan nan 269 nan nan 261 nan nan 230 nan 241 257 274 252 263 257 264 255 259
nan nan nan nan nan nan nan nan nan nan nan nan nan nan nan nan nan nan nan nan nan nan nan nan nan nan nan nan nan nan nan nan nan 216 244 259 269 265 283 nan nan 269 256 nan 256 270 260 264 268 268 268 264 261 263
nan nan nan nan nan nan nan nan nan nan nan nan nan nan nan nan nan nan nan nan nan nan nan nan nan nan nan nan nan nan nan nan nan 212 243 265 267 273 nan 250 236 233 274 271 255 258 264 273 278 286 283 279 276 270
nan nan nan nan nan nan nan nan nan nan nan nan nan nan nan nan nan nan nan nan nan nan nan nan nan nan nan nan nan nan nan nan nan 226 240 256 256 285 261 226 nan 270 259 277 266 282 289 284 307 303 298 292 280 274
nan nan nan nan nan nan nan nan nan nan nan nan nan nan nan nan nan nan nan nan nan nan nan nan nan nan nan nan nan nan 255 224 nan 211 239 249 256 256 nan nan nan nan 256 259 249 272 292 265 310 325 322 310 298 286
nan nan nan nan nan nan nan nan nan nan nan nan nan nan nan nan nan nan nan nan nan nan nan nan nan 227 nan nan nan nan nan nan 198 230 nan nan 266 nan nan nan nan nan 274 286 282 283 289 302 308 333 334 323 302 294
nan nan nan nan nan nan nan nan nan nan nan nan nan nan nan nan nan nan nan nan nan nan nan nan 212 222 nan nan nan nan 208 211 217 nan 246 nan nan nan 183 nan nan nan 251 303 333 8 186 240 328 329 341 320 331 319
nan nan nan nan nan nan nan nan nan nan nan nan nan nan nan nan nan nan nan nan nan nan nan nan 193 225 nan nan nan 202 194 219 224 nan 241 241 215 180 nan nan nan 164 101 88 52 56 72 95 21 351 1 6 18 351
nan nan nan nan nan nan nan nan nan nan nan nan nan nan nan nan nan nan nan nan nan nan nan nan 197 204 nan nan nan 223 210 227 233 242 244 nan nan nan nan nan 165 nan 122 168 239 297 277 101 338 344 353 354 26 34
nan nan nan nan nan nan nan nan nan nan nan nan nan nan nan nan nan nan nan nan nan nan nan nan nan 193 203 195 222 202 218 229 218 233 nan nan nan nan nan 133 136 135 172 249 282 259 283 268 291 320 341 345 2 21
nan nan nan nan nan nan nan nan nan nan nan nan nan nan nan nan nan nan nan nan nan nan nan nan nan nan 212 202 214 209 217 226 nan 234 nan nan nan nan 193 200 199 184 43 350 7 205 263 nan 306 312 305 313 334 340
nan nan nan nan nan nan nan nan nan nan nan nan nan nan 246 nan nan nan nan nan nan nan nan nan nan nan 218 218 216 206 226 225 224 nan nan nan nan nan 200 202 210 225 239 284 308 290 287 nan 288 298 nan nan nan 326
nan nan nan nan nan nan nan nan nan nan nan nan nan nan 231 nan nan nan nan nan nan nan 222 nan nan nan 221 217 210 204 222 215 nan nan nan nan nan 189 203 211 216 231 238 271 294 302 nan 299 300 nan nan nan nan nan
nan nan nan nan nan nan nan nan nan nan nan nan nan 225 nan nan nan nan nan nan nan 220 214 nan nan nan 219 214 210 216 221 nan nan nan nan nan 212 203 209 216 218 227 237 251 274 nan nan nan nan nan nan nan nan nan
nan nan nan nan nan nan nan nan nan nan nan nan nan nan nan 207 214 221 nan 201 220 212 215 215 nan nan nan nan 208 nan nan nan nan 195 nan 217 214 211 214 217 222 231 245 252 nan nan nan nan nan nan nan nan nan nan
nan nan nan nan nan nan nan nan nan nan nan nan nan nan nan 195 201 nan nan 215 212 200 201 216 nan nan nan nan nan nan nan nan 244 201 209 215 214 210 212 218 229 241 251 255 nan nan nan nan nan nan nan nan nan nan
nan nan nan nan nan nan nan nan nan nan nan nan nan 192 198 nan nan nan nan nan nan nan 193 nan 205 nan nan nan nan nan 216 215 212 218 211 215 218 213 213 221 228 237 252 258 263 nan nan nan nan nan nan nan nan nan
nan nan nan nan nan nan nan nan nan nan nan nan nan nan nan nan nan nan nan nan nan 204 194 198 nan nan nan 199 208 215 219 219 215 219 217 215 217 215 214 220 228 249 260 264 267 nan nan nan nan nan nan nan nan nan
nan nan nan nan nan nan nan nan nan nan nan nan nan nan nan nan nan nan nan nan nan 215 204 nan nan 191 213 205 209 209 212 211 212 213 221 218 219 217 218 229 239 253 258 265 268 nan nan nan nan nan nan nan nan nan
nan nan nan nan nan nan nan nan nan nan nan nan nan nan nan nan nan nan nan nan nan nan nan nan 200 208 211 219 215 220 219 221 222 214 212 214 221 221 232 236 244 253 261 268 nan nan nan nan nan nan nan nan nan nan
nan nan nan nan nan nan nan nan nan nan nan nan nan nan nan nan nan nan 222 nan nan nan nan nan 240 nan 233 237 214 221 220 231 220 216 216 229 219 227 231 236 243 251 252 253 256 259 263 265 268 277 282 285 nan nan
nan nan nan nan nan nan nan nan nan nan nan nan nan nan nan 147 185 236 nan nan nan nan 220 228 nan 236 nan nan 204 201 206 228 211 215 227 227 224 230 237 237 241 251 259 263 267 269 274 nan nan nan nan nan nan nan
nan nan nan nan nan nan nan nan nan nan nan nan nan nan nan 129 151 139 nan 294 256 266 nan nan nan nan nan 241 223 200 217 209 208 217 231 233 231 233 233 240 243 249 259 nan nan nan nan nan nan nan nan nan nan nan
nan nan nan nan nan nan nan nan nan nan nan nan nan nan 143 149 138 115 102 268 264 342 nan 221 3 165 157 183 202 192 198 220 217 209 223 222 228 nan nan nan nan nan nan nan nan nan nan nan nan nan nan nan nan nan
nan nan nan nan nan nan nan nan nan nan nan nan nan nan 152 152 nan nan 218 249 144 nan nan 155 154 147 139 121 112 186 184 194 200 213 nan nan 221 nan nan nan nan nan nan nan nan nan nan nan nan nan nan nan nan nan
nan nan nan nan nan nan nan nan nan nan nan nan nan 144 147 nan nan 209 195 186 127 115 nan nan nan 141 169 191 196 185 194 197 204 224 235 246 nan nan nan nan nan nan nan nan nan nan nan nan nan nan nan nan nan nan
nan nan nan nan nan nan nan nan nan 123 142 165 150 146 nan nan 198 207 186 nan nan 171 nan nan 111 118 149 163 180 179 199 228 nan nan nan nan nan nan nan nan nan nan nan nan nan nan nan nan nan nan nan nan nan nan
nan nan nan nan nan nan nan nan nan 134 144 150 154 170 185 196 193 181 193 166 154 175 169 166 187 187 189 194 209 225 nan nan nan nan nan nan nan nan nan nan nan nan nan nan nan nan 303 nan nan nan nan nan nan nan
nan nan nan nan nan nan nan nan nan nan nan nan 154 155 167 177 169 145 162 182 166 nan nan nan nan nan nan nan nan nan nan nan nan nan nan nan nan nan nan nan nan nan nan nan nan nan nan nan nan 323 nan nan nan nan
nan nan nan nan nan nan nan 120 125 nan 134 nan nan 155 176 172 168 167 nan nan nan nan nan nan nan nan nan nan nan nan nan nan nan nan nan nan nan nan nan nan nan nan nan nan nan nan nan nan nan nan nan nan 305 nan
nan nan nan nan nan nan nan nan nan 126 124 123 150 172 183 170 nan 157 161 144 nan nan nan nan nan nan nan nan nan nan nan nan nan nan nan nan nan nan nan nan nan nan 331 332 330 nan nan nan nan nan nan nan 295 297
nan nan nan nan nan nan nan nan nan nan nan nan nan nan nan nan nan 171 nan 128 130 nan nan nan nan nan nan nan nan nan nan nan nan nan nan nan nan nan nan nan nan nan nan nan nan nan nan nan nan nan nan nan nan nan